Location: East Horndon
(51.5667°N, 0.3500°E)
Time: 10:15:34
(UTC+00:00)

Cosmos 2251 Rocket - Pass Details

Date: 08 November 2025
Orbit: 760 x 788 km, 74.0° (Epoch: 12 December)

Event Time Altitude Azimuth Distance (km) Brightness Sun altitude
Exits shadow 05:11:33 - 336° (NNW) 2,740 6.1 -17.7°
Reaches altitude 10° 05:12:33 10° 337° (NNW) 2,356 5.8 -17.6°
Maximum altitude 05:17:56 75° 64° (ENE) 820 3.7 -16.7°
Drops below altitude 10° 05:23:17 10° 150° (SSE) 2,348 6.5 -15.9°
Sets 05:25:40 0° 152° (SSE) 3,272 7.3 -15.5°
